Probability
17 13 10 9 5 2 0 0 0 0 0 0 0 0 0 0 0 0 0 0 0 0 0 0 0 0 0 0 0 0 0 0 0 0 0 0 0 0 0 0 0 0 0
20 14 11 10 7 4 1 0 0 0 0 0 0 0 0 0 0 0 0 0 0 0 0 0 0 0 0 0 0 0 0 0 0 0 0 0 0 0 0 0 0 0 0
20 14 11 12 10 6 3 1 0 0 0 0 0 0 0 0 0 0 0 0 0 0 0 0 0 0 0 0 0 0 0 0 0 0 0 0 0 0 0 0 0 0 0
14 11 11 12 11 8 4 1 0 0 0 0 0 0 0 0 0 0 0 0 0 0 0 0 0 0 0 0 0 0 0 0 0 0 0 0 0 0 0 0 0 0 0
12 11 12 12 10 9 6 2 0 0 0 0 0 0 0 0 0 0 0 0 0 0 0 0 0 0 0 0 0 0 0 0 0 0 0 0 0 0 0 0 0 0 0
18 16 14 12 11 10 7 4 1 1 0 0 1 0 0 0 0 0 0 0 0 0 0 0 0 0 0 0 0 0 0 0 0 0 0 0 0 0 0 0 0 0 0
24 20 16 14 12 9 6 4 3 2 1 0 0 0 0 0 0 0 0 0 0 0 0 0 0 0 0 0 0 0 0 0 0 0 0 0 0 0 0 0 0 0 0
27 21 17 15 13 10 6 4 3 2 1 0 0 0 0 0 0 0 0 0 0 0 0 0 0 0 0 0 0 0 0 0 0 0 0 0 0 0 0 0 0 0 0
29 21 15 13 11 10 7 5 3 2 1 1 0 0 0 0 0 0 0 0 0 0 0 0 0 0 0 0 0 0 0 0 0 0 0 0 0 0 0 0 0 0 0
33 24 15 11 9 7 6 4 3 2 1 0 0 0 0 0 0 0 1 1 1 0 0 0 0 0 0 0 0 0 0 0 0 0 0 0 0 0 0 0 0 0 0
43 33 21 14 8 5 4 4 3 1 0 0 0 1 1 0 0 0 2 2 1 0 0 0 0 0 0 0 0 0 0 0 0 0 1 1 0 0 0 0 0 0 0
56 45 32 22 13 10 9 7 5 3 2 1 1 1 0 0 0 1 3 4 2 1 0 0 0 0 0 0 0 0 0 0 0 1 1 1 0 0 0 0 0 0 0
64 57 47 35 27 25 22 15 9 6 4 3 1 0 1 2 3 4 5 4 3 1 1 0 0 0 0 0 0 0 0 0 1 2 1 1 0 0 0 0 0 0 0
67 64 58 50 44 43 38 25 13 9 7 5 4 3 4 6 7 7 6 4 3 2 1 0 0 0 0 0 0 0 0 1 3 4 4 2 1 0 0 0 0 0 0
68 68 64 59 56 54 47 32 20 14 11 8 8 7 7 7 8 7 5 3 1 1 1 0 0 0 1 1 1 0 1 3 5 6 6 4 2 1 0 0 0 0 0
67 67 65 61 57 54 47 35 25 18 14 11 9 9 7 6 5 5 4 1 0 0 1 0 0 0 1 2 1 1 2 4 5 7 7 5 4 2 1 0 0 1 1
66 65 61 55 52 50 43 32 23 17 14 11 9 7 6 5 4 3 2 1 0 0 1 1 0 0 1 1 1 0 1 3 4 6 6 5 4 2 1 0 0 1 2
62 61 55 49 47 47 42 31 21 17 14 9 7 6 5 4 3 2 1 0 0 1 1 1 1 1 1 0 0 0 1 2 2 3 4 3 3 3 2 1 1 2 3
54 55 52 47 45 44 40 32 24 19 15 10 7 5 3 2 1 0 0 1 1 1 1 1 1 1 1 0 0 0 1 2 1 1 1 1 2 5 5 4 4 5 4
46 48 48 45 42 39 35 30 24 18 14 11 8 5 2 0 0 0 0 1 1 1 0 0 0 1 1 0 0 0 1 2 1 1 0 0 2 4 5 5 6 6 5
38 39 39 38 35 32 27 24 21 15 10 8 5 4 2 0 0 0 0 0 0 0 0 0 0 0 0 0 0 0 0 1 1 1 0 0 1 2 3 4 6 7 7
31 30 30 29 27 24 22 21 18 12 6 3 2 1 1 0 0 0 0 0 0 0 0 0 0 0 0 0 0 0 0 0 1 1 1 0 0 1 2 2 4 7 8
27 26 25 26 24 23 22 20 16 10 4 2 2 1 1 0 0 0 0 0 0 0 0 0 0 0 0 0 0 0 0 0 0 0 1 0 0 1 1 1 2 4 5
24 24 24 25 25 25 23 19 14 9 5 4 3 2 1 0 0 0 0 0 0 0 0 0 0 0 0 0 0 0 0 0 0 0 0 0 0 0 0 0 0 1 1
20 20 22 24 25 24 21 18 13 8 5 4 3 3 2 0 0 0 0 0 0 0 0 0 0 0 0 0 0 0 0 0 0 0 0 0 0 0 0 1 0 0 0
19 18 20 24 27 24 21 18 13 7 4 3 3 3 1 0 0 0 0 0 0 0 0 0 0 0 0 0 0 0 0 0 0 0 0 0 0 0 0 1 0 0 0
Wind_Speed
18 18 17 16 15 15 15 14 13 13 13 13 13 13 13 13 13 13 13 12 13 12 12 12 11 11 11 12 12 12 12 12 12 14 14 14 12 11 11 13 14 12 15
21 19 17 16 16 15 14 14 13 13 13 12 12 12 12 12 12 12 12 12 12 12 12 12 12 11 11 11 11 10 10 10 10 12 14 13 12 11 10 11 14 11 14
21 18 17 16 16 15 14 14 13 13 12 12 12 12 12 11 11 11 11 11 11 11 11 11 12 11 11 11 10 9 8 7 8 9 10 10 11 12 14 16 16 14 13
20 17 16 17 16 15 15 14 13 13 12 12 11 11 11 11 11 11 11 11 11 11 11 11 11 11 11 10 8 7 5 4 4 4 3 7 9 13 14 14 14 13 12
19 17 18 18 17 16 15 14 13 12 12 11 11 11 10 10 10 10 10 10 10 10 10 10 10 11 10 9 7 5 3 1 1 1 6 8 8 11 13 13 13 12 11
20 19 18 17 17 16 15 14 13 12 12 11 11 10 10 10 10 10 10 9 9 9 9 9 9 9 9 7 5 4 3 4 5 2 7 9 8 10 12 12 12 11 11
20 19 18 17 16 15 14 14 13 12 11 11 10 9 9 8 8 8 9 9 9 8 8 8 8 8 7 6 4 2 3 6 3 4 8 9 8 10 11 11 11 10 10
20 19 17 17 16 15 14 13 13 12 11 10 9 9 8 8 8 7 7 8 8 8 7 7 7 7 6 4 2 2 4 7 2 6 9 9 10 10 10 10 10 10 9
20 18 15 15 14 14 14 13 12 11 11 10 9 9 8 8 7 7 7 7 7 7 6 6 6 5 5 3 1 2 5 7 4 4 9 8 11 11 10 9 9 9 9
17 16 15 14 12 12 12 13 12 11 10 10 9 9 8 8 7 7 7 7 7 6 5 5 5 4 4 2 1 3 5 7 3 5 7 9 13 11 10 9 9 9 8
15 13 14 14 12 11 12 13 12 11 10 9 8 8 7 5 6 5 7 8 7 6 5 4 4 4 4 4 4 5 5 4 1 4 6 12 13 11 10 9 8 8 8
14 13 11 12 11 10 9 9 7 7 7 5 4 5 3 2 2 5 8 8 6 6 5 5 5 5 5 4 6 6 4 2 1 4 7 14 13 11 10 9 8 8 7
12 11 12 10 7 8 7 7 4 4 4 4 5 4 2 2 2 4 3 4 3 4 3 4 5 3 3 2 2 3 2 0 1 4 8 12 11 11 10 9 8 8 8
11 11 11 9 6 6 6 4 5 5 4 4 4 3 2 2 2 2 2 2 1 1 2 2 2 2 1 1 1 1 1 1 2 3 6 11 10 10 9 9 8 8 8
10 10 10 8 6 6 5 3 4 4 4 4 3 2 2 2 2 2 1 1 1 1 1 1 0 1 1 1 2 1 1 2 2 3 4 9 10 10 9 9 9 9 9
10 11 10 9 7 6 5 3 3 4 3 4 3 3 2 2 2 2 2 1 1 1 1 1 2 1 1 1 2 2 2 1 1 1 3 5 8 9 9 10 10 9 9
10 11 10 9 8 6 5 4 3 3 4 4 4 4 3 3 3 2 1 1 1 0 1 1 1 1 2 2 2 2 2 1 1 1 2 3 4 7 9 10 10 10 10
10 10 9 9 9 7 5 3 3 3 4 4 4 3 3 3 2 1 2 2 0 0 1 0 0 0 0 1 2 3 2 2 3 2 2 2 2 3 6 10 10 10 11
10 9 8 8 9 8 6 4 4 3 3 3 4 3 3 3 2 2 2 2 0 1 1 1 2 1 1 1 2 3 2 2 3 3 3 3 3 2 2 6 10 10 11
10 9 8 8 8 8 5 4 3 4 3 3 4 4 4 2 3 2 3 2 1 2 2 2 1 0 1 1 3 1 2 3 3 3 3 3 3 4 3 3 4 7 10
10 10 9 8 7 6 5 4 4 4 3 3 4 5 4 3 3 2 3 2 2 2 2 2 2 2 1 0 1 2 2 4 4 3 2 1 2 3 3 3 3 2 4
12 10 9 8 8 6 5 3 3 4 3 4 4 4 4 3 2 3 3 1 2 2 2 2 2 2 2 1 1 2 1 1 1 3 3 3 2 1 1 3 3 4 3
12 12 10 9 8 6 6 4 4 3 3 4 5 3 3 3 3 3 2 2 2 1 1 1 2 2 2 2 1 1 2 2 2 1 2 2 2 2 2 1 2 3 4
12 11 9 9 8 6 5 5 6 5 3 5 4 4 4 2 3 3 3 2 2 2 2 2 3 3 3 2 1 1 1 1 1 2 1 1 2 3 3 2 1 2 3
12 11 10 9 7 6 5 5 4 4 4 4 5 5 4 3 2 3 4 3 1 2 3 3 3 3 3 3 3 3 2 0 1 1 2 1 1 1 2 2 2 2 3
12 12 11 9 8 7 6 6 4 4 4 6 5 5 4 4 3 3 4 3 2 2 3 2 2 2 2 3 3 3 3 2 2 2 2 3 2 1 1 1 2 2 2
Wind_Direction
121 126 129 129 130 130 128 124 120 115 112 109 104 100 95 91 89 87 86 85 84 84 83 80 79 79 79 79 80 81 83 87 91 93 93 92 92 93 98 106 104 97 101
122 126 129 130 131 132 129 126 123 119 116 113 109 105 100 96 92 89 88 88 87 87 85 83 83 83 84 85 86 87 92 98 103 108 107 97 90 88 94 99 97 103 105
121 127 130 130 132 131 129 127 125 123 121 117 113 109 104 101 97 94 91 91 90 89 88 87 88 87 86 88 89 90 96 105 116 129 131 109 96 87 92 97 102 107 107
125 133 131 131 131 131 130 129 127 126 124 121 117 113 108 104 100 96 94 93 93 92 91 91 91 90 90 91 90 89 93 105 128 155 144 107 102 95 98 102 107 109 109
128 125 128 134 132 132 131 130 129 128 126 123 120 116 112 108 103 98 96 95 94 94 93 93 93 93 92 92 91 85 71 39 293 187 101 94 95 104 105 107 110 112 111
128 126 131 134 133 132 132 131 131 131 129 126 123 121 117 114 110 106 102 99 96 95 95 96 97 96 94 93 90 70 28 344 310 105 108 105 104 109 109 110 112 113 113
127 126 133 135 134 134 133 133 133 133 131 129 127 124 121 117 114 109 106 105 102 99 99 100 101 99 96 92 82 45 354 325 282 97 100 102 110 115 114 114 114 114 114
126 127 131 135 136 137 137 136 136 135 134 134 133 131 129 125 119 116 113 112 111 107 104 105 108 107 101 93 71 354 331 320 14 99 108 111 122 121 120 118 120 119 118
125 129 137 139 139 139 138 139 140 140 140 139 138 137 138 136 133 128 124 122 120 116 114 116 120 119 114 104 69 316 313 318 306 115 117 119 128 128 127 127 126 125 123
127 135 140 142 143 147 145 145 144 144 145 144 144 146 147 148 148 144 142 131 130 128 129 132 139 142 142 150 212 280 300 305 279 102 112 128 134 134 135 137 136 136 134
129 135 141 142 150 153 150 146 150 152 152 154 155 159 163 166 157 154 130 137 142 144 149 156 166 176 184 196 219 250 275 270 54 90 113 136 140 140 143 146 148 149 147
132 137 136 140 149 151 147 143 156 157 150 166 152 162 174 154 140 131 138 150 156 162 169 179 194 207 219 207 210 230 251 248 103 117 126 143 144 146 150 156 158 160 161
134 136 132 133 136 137 130 147 143 141 142 163 150 157 158 146 126 115 139 149 164 178 184 176 198 225 226 213 201 218 254 18 80 110 133 149 148 152 158 165 171 173 176
136 132 128 131 124 115 122 135 141 138 150 152 143 151 141 117 105 107 116 134 157 168 166 164 192 203 262 285 250 252 303 322 94 101 144 154 155 161 167 173 178 184 186
134 128 125 126 123 113 109 127 125 119 131 127 128 114 115 117 105 109 103 121 139 170 162 165 176 185 249 285 289 280 320 342 65 111 137 161 164 170 177 183 188 193 195
137 130 126 127 122 113 110 106 110 117 119 117 115 119 116 113 100 108 136 135 99 103 137 172 172 169 196 228 272 297 294 316 31 96 144 165 174 180 186 193 198 200 202
140 132 132 135 134 128 129 143 131 136 129 116 118 120 125 119 121 138 137 108 65 108 145 135 186 170 202 205 222 244 241 234 236 190 160 162 173 191 198 203 205 205 207
140 137 143 145 138 136 136 141 126 117 115 123 126 121 116 117 129 134 112 92 360 216 94 134 39 101 231 213 211 234 216 194 221 217 212 192 178 189 198 207 210 209 213
146 142 143 135 142 142 142 135 118 110 115 125 123 120 120 121 111 88 81 83 265 80 55 32 68 17 318 314 254 220 214 195 200 222 210 206 189 191 193 201 208 211 216
145 141 140 139 141 143 139 135 129 128 132 129 116 120 121 106 91 92 100 68 56 65 55 44 15 317 281 284 292 285 227 207 197 203 215 210 190 196 198 201 194 211 216
144 144 146 148 145 143 148 154 147 146 150 133 123 118 121 115 98 69 91 92 67 76 53 32 0 316 274 311 303 287 239 203 192 185 202 214 204 203 192 189 183 184 206
150 151 149 149 150 152 151 142 141 131 137 118 107 120 125 119 116 115 80 88 75 99 68 18 15 341 337 18 336 311 298 141 237 195 183 193 194 225 231 214 182 183 203
155 159 156 152 151 153 152 145 130 128 142 133 136 142 130 122 105 73 89 59 20 67 89 28 11 359 342 330 17 353 349 23 332 155 196 165 165 184 226 241 209 191 199
157 155 147 145 145 146 153 149 153 159 151 141 138 129 129 122 131 130 112 90 36 34 52 28 54 349 338 338 4 24 82 67 341 349 324 127 182 199 203 229 222 207 206
153 152 147 142 144 148 154 147 159 150 144 132 121 125 130 128 134 122 111 101 74 62 62 44 37 8 357 7 355 352 356 348 239 252 309 327 284 230 189 195 203 208 206
155 154 149 147 148 152 158 146 148 135 129 127 133 144 162 149 138 122 121 109 94 82 79 62 24 20 25 15 353 343 349 352 349 347 334 323 316 311 263 181 203 216 213